GW2922 Weather Reports


time (UTC)temp
F
wind
direction
speed
knots
gust
knots
rain 1hr
in
rain 24hr
in
rain mn
in
humidity
%
barometer
mb
20260902065408 57 134 1.7 2.6 0.00 0.00 0.00 88 1010.3
20260902064903 57 192 1.7 3.5 0.00 0.00 0.00 88 1010.7
20260902064359 57 114 1.7 2.6 0.00 0.00 0.00 88 1010.7
20260902063854 57 168 1.7 5.2 0.00 0.00 0.00 88 1010.7
20260902063348 57 175 5.2 6.1 0.00 0.00 0.00 88 1010.7
20260902062842 57 152 2.6 7.0 0.00 0.00 0.00 87 1010.7
20260902062336 57 120 3.5 3.5 0.00 0.00 0.00 87 1010.7
20260902061831 57 152 1.7 3.5 0.00 0.00 0.00 87 1010.7
20260902061326 57 161 3.5 5.2 0.00 0.00 0.00 87 1010.7
20260902060823 57 99 1.7 2.6 0.00 0.00 0.00 87 1010.7
20260902060318 57 148 0.9 1.7 0.00 0.00 0.00 86 1011.0
20260902055813 58 160 1.7 1.7 0.00 0.00 0.00 85 1010.7
20260902055309 58 168 0.9 1.7 0.00 0.00 0.00 85 1010.7
20260902054804 58 156 1.7 1.7 0.00 0.00 0.00 84 1011.0
20260902054300 59 117 0.9 3.5 0.00 0.00 0.00 84 1011.0
20260902053755 59 124 0.0 1.7 0.00 0.00 0.00 83 1011.0
20260902053254 59 172 2.6 2.6 0.00 0.00 0.00 82 1011.0
20260902052748 60 102 1.7 1.7 0.00 0.00 0.00 82 1011.3
20260902052243 60 156 1.7 2.6 0.00 0.00 0.00 82 1011.3
20260902051738 60 114 0.9 2.6 0.00 0.00 0.00 82 1011.3
20260902051232 59 159 0.9 0.9 0.00 0.00 0.00 83 1011.3
20260902050727 59 159 0.0 0.9 0.00 0.00 0.00 83 1011.3
20260902050223 59 189 0.0 1.7 0.00 0.00 0.00 84 1011.3
20260902045723 59 191 0.0 0.0 0.00 0.00 0.00 84 1011.3
20260902045219 59 191 0.0 0.9 0.00 0.00 0.00 84 1011.3
20260902044714 59 191 0.0 0.0 0.00 0.00 0.00 83 1011.3
20260902044209 59 191 0.0 0.0 0.00 0.00 0.00 83 1011.3
20260902043704 59 191 0.0 0.0 0.00 0.00 0.00 83 1011.3
20260902043200 59 191 0.0 0.9 0.00 0.00 0.00 82 1011.3
20260902042659 59 191 0.0 0.0 0.00 0.00 0.00 82 1011.3
20260902042154 59 191 0.0 0.0 0.00 0.00 0.00 81 1011.3
20260902041654 60 191 0.0 0.9 0.00 0.00 0.00 81 1011.3
20260902041148 60 191 0.0 0.0 0.00 0.00 0.00 80 1011.3
20260902040642 59 191 0.0 0.9 0.00 0.00 0.00 81 1011.3
20260902040138 59 198 0.0 0.0 0.00 0.00 0.00 82 1011.3
20260902035636 59 198 0.0 0.0 0.00 0.00 0.00 82 1011.3
20260902035132 59 198 0.0 0.0 0.00 0.00 0.00 81 1011.3
20260902034631 59 198 0.0 0.0 0.00 0.00 0.00 81 1011.3
20260902034130 60 198 0.0 0.0 0.00 0.00 0.00 80 1011.3
20260902033630 60 198 0.0 0.0 0.00 0.00 0.00 80 1011.3
20260902033125 60 198 0.0 0.0 0.00 0.00 0.00 80 1011.3
20260902032623 61 198 0.0 0.0 0.00 0.00 0.00 79 1011.3
20260902032118 61 198 0.0 0.0 0.00 0.00 0.00 78 1011.3
20260902031613 61 198 0.0 0.0 0.00 0.00 0.00 78 1011.3
20260902031110 62 198 0.0 0.0 0.00 0.00 0.00 77 1011.3
20260902030609 62 198 0.0 0.0 0.00 0.00 0.00 77 1011.3
20260902030104 62 198 0.0 0.0 0.00 0.00 0.00 77 1011.3
20260902025603 62 198 0.0 0.0 0.00 0.00 0.00 77 1011.3
20260902025059 62 198 0.0 0.9 0.00 0.00 0.00 76 1011.3
20260902024554 62 198 0.0 0.0 0.00 0.00 0.00 76 1011.3
20260902024054 62 198 0.0 0.0 0.00 0.00 0.00 76 1011.3
20260902023550 62 198 0.0 0.0 0.00 0.00 0.00 76 1011.3
20260902023045 62 198 0.0 0.0 0.00 0.00 0.00 76 1011.3
20260902022544 62 198 0.0 0.0 0.00 0.00 0.00 75 1011.3
20260902022041 63 198 0.0 0.0 0.00 0.00 0.00 75 1011.3
20260902021536 63 198 0.0 0.0 0.00 0.00 0.00 75 1011.3
20260902021031 63 198 0.0 0.0 0.00 0.00 0.00 74 1011.3
20260902020526 63 198 0.0 0.0 0.00 0.00 0.00 74 1011.3
20260902020022 63 198 0.0 0.0 0.00 0.00 0.00 74 1011.8
20260902015518 63 198 0.0 0.9 0.00 0.00 0.00 75 1011.3
20260902015013 63 198 0.0 0.0 0.00 0.00 0.00 75 1011.8
20260902014510 63 200 0.0 0.9 0.00 0.00 0.00 75 1011.8
20260902014004 63 172 0.9 0.9 0.00 0.00 0.00 75 1011.8
20260902013458 63 94 0.9 0.9 0.00 0.00 0.00 75 1011.3
20260902012953 63 312 0.9 1.7 0.00 0.00 0.00 75 1011.8
20260902012444 63 285 1.7 1.7 0.00 0.00 0.00 75 1011.8
20260902011939 63 95 0.0 0.0 0.00 0.00 0.00 74 1011.3
20260902011435 63 107 0.0 0.9 0.00 0.00 0.00 74 1011.8
20260902010934 63 106 0.0 0.9 0.00 0.00 0.00 74 1011.8
20260902010429 63 289 0.9 0.9 0.00 0.00 0.00 74 1011.3
20260902005928 63 107 0.0 0.9 0.00 0.00 0.00 74 1011.3
20260902005427 63 105 0.0 0.9 0.00 0.00 0.00 74 1011.8
20260902004923 63 132 0.9 0.9 0.00 0.00 0.00 74 1011.8
20260902004422 63 65 1.7 2.6 0.00 0.00 0.00 74 1011.3
20260902003918 63 99 0.0 0.9 0.00 0.00 0.00 75 1011.8
20260902003413 63 102 0.0 1.7 0.00 0.00 0.00 75 1011.8
20260902002908 63 196 0.0 0.9 0.00 0.00 0.00 75 1011.8
20260902002403 63 90 0.9 0.9 0.00 0.00 0.00 75 1011.3
20260902001858 63 286 1.7 1.7 0.00 0.00 0.00 74 1011.8
20260902001353 63 99 0.0 0.0 0.00 0.00 0.00 75 1011.8
20260902000847 63 95 0.0 0.9 0.00 0.00 0.00 74 1011.8
20260902000344 63 73 0.0 0.9 0.00 0.00 0.00 74 1011.8
20260901235837 62 84 0.0 0.9 0.00 0.00 0.00 75 1011.8
20260901235336 62 65 0.9 0.9 0.00 0.00 0.00 75 1011.8
20260901234832 62 94 0.0 0.9 0.00 0.00 0.00 75 1011.8
20260901234326 62 110 0.0 0.9 0.00 0.00 0.00 75 1011.8
20260901233821 63 110 0.0 0.9 0.00 0.00 0.00 75 1011.8
20260901233317 63 288 0.9 0.9 0.00 0.00 0.00 75 1011.8
20260901232812 63 82 0.9 0.9 0.00 0.00 0.00 74 1011.8
20260901232301 63 115 0.0 2.6 0.00 0.00 0.00 75 1011.8
20260901231757 63 58 0.9 1.7 0.00 0.00 0.00 74 1011.8
20260901231248 64 104 0.0 3.5 0.00 0.00 0.00 74 1011.8
20260901230744 64 309 1.7 3.5 0.00 0.00 0.00 74 1011.3
20260901230243 64 103 0.0 1.7 0.00 0.00 0.00 74 1011.3
20260901225738 65 60 0.0 1.7 0.00 0.00 0.00 73 1011.3
20260901225233 64 110 0.0 0.9 0.00 0.00 0.00 74 1011.3
20260901224729 64 82 0.0 1.7 0.00 0.00 0.00 73 1011.3
20260901224225 64 155 0.9 1.7 0.00 0.00 0.00 73 1011.8
20260901223721 64 95 0.0 0.9 0.00 0.00 0.00 74 1011.8
20260901223215 64 87 0.9 0.9 0.00 0.00 0.00 74 1011.3
20260901222711 63 118 0.0 1.7 0.00 0.00 0.00 75 1011.3
20260901222208 63 315 0.9 3.5 0.00 0.00 0.00 75 1011.8
20260901221703 62 109 0.0 1.7 0.00 0.00 0.00 76 1011.8
20260901221159 63 79 0.9 3.5 0.00 0.00 0.00 76 1011.8
20260901220658 64 86 1.7 1.7 0.00 0.00 0.00 73 1011.8
20260901220157 64 109 0.0 3.5 0.00 0.00 0.00 74 1011.8
20260901215655 66 302 2.6 3.5 0.00 0.00 0.00 72 1011.8
20260901215150 66 106 0.0 0.9 0.00 0.00 0.00 72 1011.8
20260901214648 66 96 0.9 0.9 0.00 0.00 0.00 72 1012.1
20260901214143 66 182 0.9 1.7 0.00 0.00 0.00 73 1011.8
20260901213642 67 111 0.9 2.6 0.00 0.00 0.00 73 1011.8
20260901213137 67 106 0.0 0.9 0.00 0.00 0.00 72 1011.8
20260901212637 67 131 0.0 0.9 0.00 0.00 0.00 72 1012.1
20260901212133 67 149 2.6 2.6 0.00 0.00 0.00 72 1012.1
20260901211628 67 118 0.9 2.6 0.00 0.00 0.00 72 1012.1
20260901211124 67 110 0.0 2.6 0.00 0.00 0.00 73 1012.1
20260901210620 68 105 0.9 0.9 0.00 0.00 0.00 70 1012.1
20260901210116 67 197 4.3 6.1 0.00 0.00 0.00 72 1012.1
20260901205611 67 84 0.9 2.6 0.00 0.00 0.00 73 1012.1
20260901205105 67 93 0.9 5.2 0.00 0.00 0.00 73 1012.1
20260901204602 68 187 2.6 3.5 0.00 0.00 0.00 71 1012.1
20260901204056 68 157 1.7 3.5 0.00 0.00 0.00 70 1012.1
20260901203550 68 121 1.7 1.7 0.00 0.00 0.00 70 1012.1
20260901203046 68 99 0.0 1.7 0.00 0.00 0.00 72 1012.1
20260901202545 67 130 1.7 3.5 0.00 0.00 0.00 73 1012.1
20260901202042 68 129 0.9 2.6 0.00 0.00 0.00 71 1012.1
20260901201537 66 135 1.7 2.6 0.00 0.00 0.00 74 1012.1
20260901201036 67 109 1.7 5.2 0.00 0.00 0.00 72 1012.1
20260901200536 68 113 1.7 3.5 0.00 0.00 0.00 71 1012.1
20260901200031 68 90 1.7 2.6 0.00 0.00 0.00 71 1012.1
20260901195528 69 122 0.9 1.7 0.00 0.00 0.00 70 1011.8
20260901195023 68 81 0.9 2.6 0.00 0.00 0.00 72 1012.1
20260901194518 68 167 2.6 3.5 0.00 0.00 0.00 72 1012.1
20260901194014 68 108 1.7 3.5 0.00 0.00 0.00 70 1012.1
20260901193513 68 91 0.9 1.7 0.00 0.00 0.00 71 1012.1
20260901193014 67 91 0.9 1.7 0.00 0.00 0.00 73 1012.1
20260901192509 67 108 0.9 7.0 0.00 0.00 0.00 72 1012.1
20260901192005 67 103 0.9 1.7 0.00 0.00 0.00 72 1012.1
20260901191500 67 81 1.7 2.6 0.00 0.00 0.00 72 1012.1
20260901190955 67 96 0.9 7.0 0.00 0.00 0.00 74 1011.8
20260901190451 67 108 1.7 1.7 0.00 0.00 0.00 72 1012.1
20260901185949 66 99 0.9 1.7 0.00 0.00 0.00 71 1012.1
20260901185444 65 116 0.9 0.9 0.00 0.00 0.00 73 1012.1
20260901184943 66 61 0.9 1.7 0.00 0.00 0.00 73 1012.1
20260901184439 65 74 0.9 2.6 0.00 0.00 0.00 72 1012.1
20260901183934 63 94 0.9 1.7 0.00 0.00 0.00 75 1012.1
20260901183433 63 99 0.0 3.5 0.00 0.00 0.00 76 1012.1
20260901182929 64 38 1.7 1.7 0.00 0.00 0.00 75 1012.1
20260901182424 64 100 0.0 1.7 0.00 0.00 0.00 74 1012.1
20260901181914 64 102 0.0 0.9 0.00 0.00 0.00 75 1012.1
20260901181408 62 108 0.0 0.9 0.00 0.00 0.00 77 1012.1
20260901180907 62 93 0.9 1.7 0.00 0.00 0.00 78 1012.1
20260901180401 61 18 0.9 1.7 0.00 0.00 0.00 78 1012.1
20260901175900 61 136 0.0 1.7 0.00 0.00 0.00 78 1012.1
20260901175354 61 105 0.0 0.9 0.00 0.00 0.00 78 1012.1
20260901174849 61 110 0.0 0.9 0.00 0.00 0.00 79 1012.1
20260901174345 61 116 0.9 1.7 0.00 0.00 0.00 79 1012.1
20260901173841 61 116 0.0 0.0 0.00 0.00 0.00 79 1012.1
20260901173335 61 87 0.0 1.7 0.00 0.00 0.00 79 1012.1
20260901172832 61 172 0.0 0.9 0.00 0.00 0.00 79 1011.8
20260901172331 61 121 0.0 1.7 0.00 0.00 0.00 80 1011.8
20260901171829 62 95 1.7 2.6 0.00 0.00 0.00 82 1011.8
20260901171329 61 110 2.6 5.2 0.00 0.00 0.00 83 1011.8
20260901170828 60 102 0.9 3.5 0.00 0.00 0.00 85 1011.8
20260901170322 60 163 6.1 7.0 0.00 0.00 0.00 84 1011.8
20260901165816 60 189 2.6 5.2 0.00 0.00 0.00 84 1011.8
20260901165310 60 177 0.9 3.5 0.00 0.00 0.00 85 1011.3
20260901164807 60 179 1.7 3.5 0.00 0.00 0.00 86 1011.8
20260901164302 59 218 4.3 6.1 0.00 0.00 0.00 86 1011.8
20260901163757 59 169 0.9 3.5 0.00 0.00 0.00 88 1011.8
20260901163256 58 207 2.6 5.2 0.00 0.00 0.00 89 1011.8
20260901162751 58 180 5.2 6.1 0.00 0.00 0.00 89 1011.8
20260901162251 57 159 1.7 3.5 0.00 0.00 0.00 90 1011.8
20260901161749 57 112 2.6 3.5 0.00 0.00 0.00 90 1011.8
20260901161244 57 150 2.6 3.5 0.00 0.00 0.00 90 1011.8
20260901160740 57 171 2.6 7.0 0.00 0.00 0.00 91 1011.8
20260901160236 57 222 3.5 8.7 0.00 0.00 0.00 91 1011.8
20260901155735 57 170 1.7 5.2 0.00 0.00 0.00 91 1011.8
20260901155231 56 149 1.7 7.0 0.00 0.00 0.00 91 1011.8
20260901154726 56 163 4.3 6.1 0.00 0.00 0.00 91 1011.3
20260901154221 56 155 3.5 5.2 0.00 0.00 0.00 91 1011.8
20260901153716 56 98 0.9 5.2 0.00 0.00 0.00 91 1011.8
20260901153215 56 157 0.9 3.5 0.00 0.00 0.00 91 1011.8
20260901152709 56 170 1.7 6.1 0.00 0.00 0.00 91 1011.8
20260901152203 56 116 0.9 7.0 0.00 0.00 0.00 91 1011.3
20260901151659 56 180 0.9 6.1 0.00 0.00 0.00 91 1011.8
20260901151158 56 140 2.6 7.0 0.00 0.00 0.00 91 1011.8
20260901150658 56 184 4.3 5.2 0.00 0.00 0.00 91 1011.3
20260901150156 56 177 4.3 6.1 0.00 0.00 0.00 91 1011.3
20260901145654 56 98 2.6 7.0 0.00 0.00 0.00 91 1011.3
20260901145153 55 166 3.5 6.1 0.00 0.00 0.00 91 1011.3
20260901144649 55 120 4.3 7.8 0.00 0.00 0.00 91 1011.3
20260901144143 55 150 3.5 7.8 0.00 0.00 0.00 91 1011.3
20260901143639 54 91 2.6 5.2 0.00 0.00 0.00 91 1011.3
20260901143135 54 164 4.3 5.2 0.00 0.00 0.00 91 1011.3
20260901142631 54 158 1.7 6.1 0.00 0.00 0.00 91 1011.3
20260901142130 54 121 2.6 3.5 0.00 0.00 0.00 90 1011.3
20260901141626 54 112 3.5 5.2 0.00 0.00 0.00 90 1011.3
20260901141126 54 128 2.6 3.5 0.00 0.00 0.00 90 1011.3
20260901140625 54 179 1.7 3.5 0.00 0.00 0.00 90 1011.3
20260901140124 54 122 0.9 1.7 0.00 0.00 0.00 90 1011.3
20260901135624 54 127 1.7 2.6 0.00 0.00 0.00 90 1011.3
20260901135119 54 119 0.9 1.7 0.00 0.00 0.00 90 1011.3
20260901134615 54 137 0.9 1.7 0.00 0.00 0.00 91 1011.3
20260901134110 53 162 1.7 2.6 0.00 0.00 0.00 91 1011.3
20260901133609 53 148 0.9 1.7 0.00 0.00 0.00 91 1011.3
20260901133107 53 172 1.7 2.6 0.00 0.00 0.00 91 1011.3
20260901132602 53 136 1.7 2.6 0.00 0.00 0.00 91 1011.0
20260901132056 53 129 0.9 0.9 0.00 0.00 0.00 91 1011.3
20260901131550 53 149 0.9 1.7 0.00 0.00 0.00 91 1011.0
20260901131046 53 123 0.9 1.7 0.00 0.00 0.00 91 1011.3
20260901130545 53 143 0.9 1.7 0.00 0.00 0.00 92 1011.0
20260901130044 53 130 0.0 0.9 0.00 0.00 0.00 92 1011.0
20260901125542 52 126 0.0 0.0 0.00 0.00 0.00 92 1011.0
20260901125038 52 121 0.0 0.0 0.00 0.00 0.00 92 1011.0
20260901124538 52 104 0.0 0.0 0.00 0.00 0.00 92 1011.0
20260901124033 53 104 0.0 0.0 0.00 0.00 0.00 92 1011.3
20260901123528 53 120 0.0 0.9 0.00 0.00 0.00 92 1011.0
20260901123027 52 123 0.0 0.9 0.00 0.00 0.00 93 1011.0
20260901122526 52 115 0.0 0.0 0.00 0.00 0.00 93 1011.0
20260901122020 52 115 0.0 0.0 0.00 0.00 0.00 93 1011.0
20260901121514 52 111 0.0 0.0 0.00 0.00 0.00 92 1011.0
20260901121009 53 104 0.0 0.0 0.00 0.00 0.00 93 1011.3
20260901120503 53 114 0.0 0.9 0.00 0.00 0.00 93 1011.0
20260901115959 53 117 0.9 0.9 0.00 0.00 0.00 93 1011.0
20260901115454 52 119 0.0 0.0 0.00 0.00 0.00 93 1011.0
20260901114951 51 112 0.0 0.0 0.00 0.00 0.00 93 1011.0
20260901114446 52 112 0.0 0.0 0.00 0.00 0.00 93 1011.0
20260901113945 52 108 0.0 0.0 0.00 0.00 0.00 93 1011.0
20260901113444 52 117 0.0 0.0 0.00 0.00 0.00 93 1011.0
20260901112940 52 117 0.0 0.0 0.00 0.00 0.00 93 1011.3
20260901112435 51 109 0.0 0.0 0.00 0.00 0.00 92 1011.0
20260901111930 51 109 0.0 0.0 0.00 0.00 0.00 92 1011.3
20260901111429 51 110 0.0 0.0 0.00 0.00 0.00 92 1011.3
20260901110927 51 110 0.0 0.0 0.00 0.00 0.00 92 1011.3
20260901110423 51 109 0.0 0.0 0.00 0.00 0.00 92 1011.3
20260901105919 52 109 0.0 0.0 0.00 0.00 0.00 92 1011.3
20260901105414 52 109 0.0 0.0 0.00 0.00 0.00 92 1011.3
20260901104910 51 110 0.0 0.0 0.00 0.00 0.00 92 1011.0
20260901104405 51 110 0.0 0.0 0.00 0.00 0.00 92 1011.3
20260901103901 51 109 0.0 0.0 0.00 0.00 0.00 92 1011.3
20260901103400 51 109 0.0 0.0 0.00 0.00 0.00 91 1011.3
20260901102855 51 109 0.0 0.0 0.00 0.00 0.00 91 1011.0
20260901102349 51 109 0.0 0.0 0.00 0.00 0.00 91 1011.3
20260901101844 51 109 0.0 0.0 0.00 0.00 0.00 91 1011.3
20260901101339 51 109 0.0 0.0 0.00 0.00 0.00 91 1011.3
20260901100839 51 109 0.0 0.0 0.00 0.00 0.00 91 1011.3
20260901100338 51 110 0.0 0.0 0.00 0.00 0.00 91 1011.3
20260901095833 52 109 0.0 0.0 0.00 0.00 0.00 91 1011.3
20260901095330 52 99 0.0 0.0 0.00 0.00 0.00 90 1011.3
20260901094824 52 98 0.0 0.0 0.00 0.00 0.00 90 1011.3
20260901094319 51 113 0.0 0.0 0.00 0.00 0.00 90 1011.3
20260901093815 52 113 0.0 0.0 0.00 0.00 0.00 90 1011.3
20260901093313 52 112 0.0 0.0 0.00 0.00 0.00 90 1011.3
20260901092809 52 114 0.0 0.0 0.00 0.00 0.00 90 1011.3
20260901092306 52 114 0.0 0.0 0.00 0.00 0.00 90 1011.3
20260901091801 52 114 0.0 0.0 0.00 0.00 0.00 89 1011.3
20260901091256 53 114 0.0 0.0 0.00 0.00 0.00 89 1011.3
20260901090755 53 114 0.0 0.0 0.00 0.00 0.00 89 1011.3
20260901090250 53 113 0.0 0.0 0.00 0.00 0.00 89 1011.3
20260901085746 53 114 0.0 0.0 0.00 0.00 0.00 88 1011.3
20260901085241 53 114 0.0 0.0 0.00 0.00 0.00 88 1011.3
20260901084738 53 114 0.0 0.0 0.00 0.00 0.00 88 1011.3
20260901084235 53 114 0.0 0.0 0.00 0.00 0.00 87 1011.3
20260901083734 54 114 0.0 0.0 0.00 0.00 0.00 87 1011.3
20260901083234 54 114 0.0 0.0 0.00 0.00 0.00 86 1011.3
20260901082732 54 114 0.0 0.0 0.00 0.00 0.00 85 1011.3
20260901082228 54 114 0.0 0.0 0.00 0.00 0.00 85 1011.3
20260901081723 55 114 0.0 0.0 0.00 0.00 0.00 85 1011.3
20260901081223 55 114 0.0 0.0 0.00 0.00 0.00 85 1011.3
20260901080718 55 114 0.0 0.0 0.00 0.00 0.00 84 1011.3
20260901080217 55 112 0.0 0.0 0.00 0.00 0.00 83 1011.0
20260901075712 55 112 0.0 0.0 0.00 0.00 0.00 83 1011.3
20260901075211 56 118 0.0 0.0 0.00 0.00 0.00 83 1011.3
20260901074706 56 118 0.0 0.0 0.00 0.00 0.00 82 1011.0
20260901074201 56 118 0.0 0.0 0.00 0.00 0.00 82 1011.3
20260901073658 57 117 0.0 0.0 0.00 0.00 0.00 81 1011.3
20260901073153 57 133 0.0 0.9 0.00 0.00 0.00 81 1011.3
20260901072648 57 55 0.0 0.9 0.00 0.00 0.00 80 1011.0
20260901072143 57 99 0.0 0.9 0.00 0.00 0.00 80 1011.0
20260901071642 57 98 0.0 0.9 0.00 0.00 0.00 80 1011.3
20260901071137 57 139 0.0 0.9 0.00 0.00 0.00 80 1011.3
20260901070631 57 103 0.0 0.9 0.00 0.00 0.00 80 1011.3
20260901070127 57 64 0.9 1.7 0.00 0.00 0.00 79 1011.3
20260901065620 57 93 0.9 2.6 0.00 0.00 0.00 79 1011.3